Location: Ikejouine
(32.5142°N, 5.4699°W)
Time: 13:19:15
(UTC+00:00)

Cosmos 1295 Rocket - Pass Details

Date: 09 April 2020
Orbit: 944 x 994 km, 82.9° (Epoch: 04 June)

Event Time Altitude Azimuth Distance (km) Brightness Sun altitude
Rises 20:13:18 0° 357° (N) 3,701 7.9 -18.1°
Reaches altitude 10° 20:15:52 10° 1° (N) 2,754 7.1 -18.6°
Maximum altitude 20:22:09 65° 83° (E) 1,087 4.5 -19.8°
Enters shadow 20:25:59 25° 158° (SSE) 1,897 5.6 -20.6°
